sat.trackr.live / text

‹ back to catalog

GSAT0234 (GALILEO 34)

NORAD 67162 · 2025-302C

PAYLOAD ACTIVE UNKNOWN

§ Identity

Operator
Country
ESA
Launch date
2025-12-17
Launch site
FRGUI
Launch vehicle
Mass (kg)
RCS (m²)

Purposes: earth_obs, nav

External: N2YO · Heavens-Above · Gunter

§ Orbital elements

Epoch: 2026-05-23T14:09:46.298880Z

Period
844.70 min
Inclination
54.3227°
Eccentricity
0.0003475
Mean motion
1.70474193 rev/d
Perigee alt
23,211.9 km
Apogee alt
23,232.4 km
Semi-major
29,600.3 km
B*
0.0000e+0
RAAN
102.8298°
Arg perigee
303.3884°
Mean anomaly
57.4130°
Rev number
276

§ Raw data

GSAT0234 (GALILEO 34)1 67162U 25302C   26143.59011920  .00000019  00000+0  00000+0 0  99952 67162  54.3227 102.8298 0003475 303.3884  57.4130  1.70474193  2766

JSON: /api/v1/satellites/67162 · /tle

For live sub-satellite position, see the globe view (requires WebGL).

§ Visibility from observer

Set your observer location to see the next 7 days of passes ≥ 10°. The values pass through the URL so the page stays shareable.

No JS? Fill the form by hand. The geolocation button needs JavaScript.